Regional Weather Roundup
Issued by NWS Cleveland, OH

Home | Current Version | Previous Version | Text Only | Print | Product List | Glossary Off
Versions: 1 2 3 4 5 6 7 8 9 10 11 12 13 14 15 16 17 18 19 20 21 22 23 24 25 26 27 28 29 30 31 32 33 34 35 36 37 38 39 40 41 42 43 44 45 46 47 48 49 50

000
ASUS41 KCLE 300210
RWRCLE
OHIO REGIONAL WEATHER ROUNDUP
NATIONAL WEATHER SERVICE CLEVELAND, OH
1000 PM EDT SUN MAY 29 2016

NOTE: "FAIR" INDICATES FEW OR NO CLOUDS BELOW 12,000 FEET WITH NO
SIGNIFICANT WEATHER AND/OR OBSTRUCTIONS TO VISIBILITY.

OHZ001>008-015>018-024>027-034-035-043-044-300300-
   NORTHWEST OHIO

CITY           SKY/WX    TMP DP  RH WIND       PRES   REMARKS
DEFIANCE       CLEAR     74  55  51 NW8       29.97R
FINDLAY        CLOUDY    75  61  61 S7        29.96S
TOLEDO EXPRESS CLEAR     77  53  43 W8        29.95S
TOLEDO EXEC    CLEAR     74  56  53 W7        29.96R
LIMA           CLOUDY    77  60  55 CALM      29.98S
$$

OHZ009>014-019>023-028>033-038-089-300300-
   NORTHEAST OHIO

CITY           SKY/WX    TMP DP  RH WIND       PRES   REMARKS
CLE-HOPKINS    CLOUDY    66  61  84 S12       30.02F
CLE-LAKEFRONT  LGT RAIN  68  63  84 S17       29.99F
CUY CO. ARPT   RAIN      66  64  94 S14G21    30.01F
LORAIN-ELYRIA  CLOUDY    68  61  78 S8        30.00R
ASHTABULA      MOCLDY    71  62  73 W13       30.05R
AKRON-CANTON   CLOUDY    70  59  68 S10       30.03R
WOOSTER        CLOUDY    68  60  75 S6        30.03R
MANSFIELD      LGT RAIN  65  63  93 S15       30.03S
YOUNGSTOWN     MOCLDY    69  62  78 SE8       30.02F
$$

OHZ042-051>053-060>062-070>072-077>081-300300-
  SOUTHWEST OHIO

CITY           SKY/WX    TMP DP  RH WIND       PRES   REMARKS
CINC-COVINGTON MOCLDY    74  65  73 W3        30.02R
CINC-LUNKEN    MOCLDY    71  70  96 CALM      30.00R THUNDER
HAMILTON       MOCLDY    75  65  70 CALM      30.01R
DAYTON         CLOUDY    70  64  81 SE9       30.01R
WRIGHT-PAT AFB NOT AVBL
DAYTON GENERAL MOCLDY    70  63  78 SE3       30.01R
WILMINGTON     TSTM      66  63  90 SE6       30.01S
$$

OHZ036-037-039>041-045>050-054>059-063>069-073>076-082>088-300300-
  CENTRAL AND SOUTHEAST OHIO

CITY           SKY/WX    TMP DP  RH WIND       PRES   REMARKS
COLUMBUS       CLOUDY    70  59  68 W6        30.02R
OSU AIRPORT    LGT RAIN  72  60  66 S8        30.01S
BOLTON FIELD   CLOUDY    67  62  84 SW7       30.03R
RICKENBACK AFB LGT RAIN  67  62  86 S12       30.01R
NEWARK         PTCLDY    73  63  70 SE5       30.00F
MARION         MOCLDY    67  63  87 SE6       30.00S
LANCASTER      CLOUDY    67  60  78 W5        30.02S
ZANESVILLE     PTCLDY    69  63  81 S6        30.02F
NEW PHILLY     PTCLDY    68  61  78 CALM      30.03F
$$



USA.gov is the U.S. government's official web portal to all federal, state and local government web resources and services.